This is the latest recevied weather packets stored in our database for station/object SV9TNF-2. If no packets are shown the sender has not sent any weather packets the latest 10 day(s).
| Time | Temp. | Humidity | Pressure | Rain* | Wind** | Luminosity | Snow |
|---|---|---|---|---|---|---|---|
| 1777721148 | 16.67° C | 53% | 1022.4 hPa | 0 mm | 8.05 m/s, 164° | - | - |
| 1777720848 | 16.11° C | 52% | 1022.4 hPa | 0 mm | 8.49 m/s, 91° | - | - |
| 1777720548 | 16.11° C | 54% | 1022.4 hPa | 0 mm | 8.05 m/s, 96° | - | - |
| 1777720248 | 16.11° C | 54% | 1022.4 hPa | 0 mm | 8.94 m/s, 90° | - | - |
| 1777719948 | 16.11° C | 55% | 1022.4 hPa | 0 mm | 8.05 m/s, 106° | - | - |
| 1777719648 | 16.11° C | 54% | 1022.4 hPa | 0 mm | 9.83 m/s, 78° | - | - |
| 1777719347 | 15.56° C | 59% | 1022.4 hPa | 0 mm | 9.39 m/s, 105° | - | - |
| 1777719047 | 15.56° C | 58% | 1022.4 hPa | 0 mm | 11.18 m/s, 84° | - | - |
| 1777718747 | 15.56° C | 58% | 1022.4 hPa | 0 mm | 7.15 m/s, 75° | - | - |
| 1777718147 | 15.56° C | 55% | 1022.4 hPa | 0 mm | 8.94 m/s, 79° | - | - |
| 1777717847 | 15.56° C | 53% | 1022.4 hPa | 0 mm | 8.94 m/s, 102° | - | - |
| 1777717547 | 15.56° C | 55% | 1022.4 hPa | 0 mm | 11.62 m/s, 262° | - | - |
| 1777717247 | 15.56° C | 54% | 1022.4 hPa | 0 mm | 8.94 m/s, 102° | - | - |
| 1777716946 | 15.56° C | 55% | 1022.4 hPa | 0 mm | 6.26 m/s, 81° | - | - |
| 1777716646 | 15.56° C | 57% | 1022.4 hPa | 0 mm | 6.71 m/s, 77° | - | - |
| 1777716346 | 15.56° C | 59% | 1022.4 hPa | 0 mm | 8.94 m/s, 328° | - | - |
| 1777716046 | 15.56° C | 59% | 1022.4 hPa | 0 mm | 6.26 m/s, 100° | - | - |
| 1777715746 | 15.56° C | 59% | 1022.4 hPa | 0 mm | 9.83 m/s, 52° | - | - |
| 1777715446 | 15.56° C | 62% | 1022.4 hPa | 0 mm | 7.15 m/s, 55° | - | - |
| 1777715146 | 15.56° C | 62% | 1022.4 hPa | 0 mm | 8.05 m/s, 62° | - | - |
| 1777714846 | 15.56° C | 60% | 1022.4 hPa | 0 mm | 7.15 m/s, 72° | - | - |
| 1777714546 | 15.56° C | 61% | 1022.4 hPa | 0 mm | 7.6 m/s, 107° | - | - |
| 1777714246 | 15.56° C | 63% | 1022.4 hPa | 0 mm | 9.39 m/s, 96° | - | - |
| 1777713945 | 15.56° C | 64% | 1022.4 hPa | 0 mm | 7.6 m/s, 77° | - | - |
| 1777713645 | 15.56° C | 60% | 1022.4 hPa | 0 mm | 8.05 m/s, 103° | - | - |
* Rain latest hour (hover to see other rain measurements)
** Current wind speed in m/s (hover to see current wind gust speed)